Hourly Data Report for March 06, 2020

All times are specified in Local Standard Time (LST). Add 1 hour to adjust for Daylight Saving Time where and when it is observed.

OTTAWA INTL A
ONTARIO
Current Station Operator: NAVCAN

45°19'00.000" N
75°40'00.000" W
114.90 m
6106001
71628
YOW

Download Data

Hourly Data (March 2020)
Hourly Data Report for March 6, 2020
TIME Temp Definition
°C
Dew Point Definition
°C
Rel Hum Definition
%
Wind Dir Definition
10's deg

Wind Spd Definition
km/h
Visibility Definition
km
Stn Press Definition
kPa
Hmdx Definition


Wind Chill Definition


Weather Definition


00:00 -0.5 -3.0 83 36 2 16.1 100.46   -1 Snow
01:00 -1.1 -2.7 89 6 7 4.0 100.38   -4 Snow
02:00 -1.2 -2.2 93 4 9 4.0 100.34   -4 Snow
03:00 -1.2 -1.9 95 7 9 1.2 100.28   -4 Snow
04:00 -1.4 -2.0 95 8 17 1.2 100.22   -7 Snow
05:00 -1.2 -1.9 95 6 19 2.0 100.24   -7 Freezing Rain,Snow
06:00 -1.2 -1.9 95 3 16 1.2 100.29   -6 Snow
07:00 -1.3 -2.0 95 3 26 2.4 100.33   -8 Snow
08:00 -1.3 -2.0 94 5 27 2.4 100.38   -8 Snow
09:00 -1.2 -2.1 93 5 26 9.7 100.39   -8 Snow
10:00 -1.0 -2.3 91 4 36 9.7 100.37   -8 Snow,Blowing Snow
11:00 -0.6 -2.2 89 5 30 9.7 100.38   -7 Snow,Blowing Snow
12:00 -0.4 -2.2 87 5 31 8.1 100.40   -7 Snow,Blowing Snow
13:00 -0.4 -1.9 89 3 29 9.7 100.42   -7 Snow,Blowing Snow
14:00 -0.3 -2.0 88 4 34 9.7 100.45   -7 Snow,Blowing Snow
15:00 -0.3 -2.0 88 1 26 9.7 100.45   -6 Snow,Blowing Snow
16:00 -0.7 -3.5 81 2 31 24.1 100.56   -7 Blowing Snow
17:00 -1.2 -5.3 74 1 29 24.1 100.64   -8 LegendNANA
18:00 -1.4 -6.7 67 2 21 24.1 100.75   -7 LegendNANA
19:00 -1.6 -7.2 66 1 14 24.1 100.80   -6 Mostly Cloudy
20:00 -2.1 -7.6 66 35 14 24.1 100.90   -7 LegendNANA
21:00 -2.9 -9.3 61 1 27 24.1 100.94   -10 LegendNANA
22:00 -3.8 -10.6 60 1 23 24.1 101.03   -11 Mainly Clear
23:00 -4.8 -11.9 58 1 18 24.1 101.08   -11 LegendNANA

Notes on Data Quality.

Legend

  • E = Estimated
  • M = Missing
  • NA = Not Available*
  • [empty] = Indicates an unobserved value
Date modified: